FW1490 Weather Reports


Display with metric or nautical units.
time (UTC)temp
F
wind
direction
speed
MPH
gust
MPH
rain 1hr
in
rain 24hr
in
rain mn
in
humidity
%
barometer
mb
20260504220004 79 42 3.0 8.0 0.00 0.00 0.00 19 995.5
20260504214504 79 112 9.0 18.0 0.00 0.00 0.00 20 995.4
20260504213141 80 116 9.0 17.0 0.00 0.00 0.00 21 995.6
20260504211606 81 118 6.0 13.0 0.00 0.00 0.00 17 995.8
20260504210057 83 311 1.0 5.0 0.00 0.00 0.00 14 995.9
20260504204557 83 312 0.0 4.0 0.00 0.00 0.00 15 996.0
20260504203024 82 266 0.0 10.0 0.00 0.00 0.00 14 996.1
20260504201526 81 290 2.0 8.0 0.00 0.00 0.00 16 996.3
20260504200018 81 205 8.0 17.0 0.00 0.00 0.00 16 996.6
20260504194519 81 201 5.0 10.0 0.00 0.00 0.00 16 996.7
20260504193016 82 230 0.0 4.0 0.00 0.00 0.00 16 996.7
20260504191518 81 281 2.0 4.0 0.00 0.00 0.00 16 996.9
20260504190010 82 261 3.0 9.0 0.00 0.00 0.00 16 997.1
20260504184514 82 261 6.0 16.0 0.00 0.00 0.00 15 997.2
20260504183008 83 278 5.0 13.0 0.00 0.00 0.00 15 997.4
20260504181505 83 345 4.0 9.0 0.00 0.00 0.00 15 997.6
20260504180001 81 202 2.0 6.0 0.00 0.00 0.00 15 997.9
20260504174617 82 212 8.0 14.0 0.00 0.00 0.00 15 998.1
20260504173059 82 331 1.0 10.0 0.00 0.00 0.00 16 998.2
20260504171555 82 221 6.0 14.0 0.00 0.00 0.00 17 998.5
20260504100105 48 218 3.0 5.0 0.00 0.00 0.00 65 999.5
20260504100103 48 224 3.0 5.0 0.00 0.00 0.00 65 999.5
20260504090106 47 302 5.0 9.0 0.00 0.00 0.00 66 999.9
20260504081506 48 318 4.0 9.0 0.00 0.00 0.00 63 1000.4
20260504044559 58 33 5.0 11.0 0.00 0.00 0.00 47 1001.4
20260504043047 59 53 6.0 12.0 0.00 0.00 0.00 46 1001.5
20260504041545 59 53 3.0 6.0 0.00 0.00 0.00 44 1001.7
20260504040046 62 30 5.0 10.0 0.00 0.00 0.00 42 1001.9
20260504034552 62 45 4.0 10.0 0.00 0.00 0.00 40 1001.9
20260504033053 65 63 4.0 10.0 0.00 0.00 0.00 36 1002.0
20260504031525 67 41 5.0 14.0 0.00 0.00 0.00 34 1001.9
20260504030024 67 78 5.0 12.0 0.00 0.00 0.00 31 1001.9
20260504024523 67 58 3.0 6.0 0.00 0.00 0.00 28 1001.7
20260504023020 68 52 2.0 5.0 0.00 0.00 0.00 25 1001.7
20260504021525 70 53 5.0 7.0 0.00 0.00 0.00 24 1001.7
20260504020019 71 38 4.0 8.0 0.00 0.00 0.00 22 1001.6
20260504014550 72 17 3.0 8.0 0.00 0.00 0.00 22 1001.6
20260504013050 74 23 4.0 9.0 0.00 0.00 0.00 21 1001.6
20260504011545 76 15 3.0 8.0 0.00 0.00 0.00 20 1001.7
20260504010053 78 17 5.0 10.0 0.00 0.00 0.00 17 1001.7
20260504004542 79 355 5.0 14.0 0.00 0.00 0.00 17 1001.8
20260504003039 81 18 5.0 12.0 0.00 0.00 0.00 16 1001.8
20260504001508 80 355 6.0 12.0 0.00 0.00 0.00 16 1002.0
20260504000007 80 349 10.0 17.0 0.00 0.00 0.00 15 1002.0
20260503234504 80 342 7.0 12.0 0.00 0.00 0.00 15 1002.1
20260503233001 81 338 4.0 14.0 0.00 0.00 0.00 16 1002.3
20260503231559 80 324 5.0 12.0 0.00 0.00 0.00 16 1002.4
20260503230058 80 298 9.0 14.0 0.00 0.00 0.00 15 1002.6
20260503224553 80 342 7.0 16.0 0.00 0.00 0.00 16 1002.6
20260503223052 81 325 2.0 13.0 0.00 0.00 0.00 16 1002.6
20260503221549 81 336 9.0 13.0 0.00 0.00 0.00 16 1002.8